Change the Weather History Date:

Saturday, February 2, 2013

  Actual Average Record
Temperature  
Mean Temperature 36 °F -  
Max Temperature 42 °F 41 °F 66 °F (2003)
Min Temperature 30 °F 22 °F 5 °F (2001)
Degree Days  
Heating Degree Days 29    
Moisture  
Dew Point 22 °F    
Average Humidity 67    
Maximum Humidity 93    
Minimum Humidity 40    
Precipitation  
Precipitation 0.14 in - - ()
Sea Level Pressure  
Sea Level Pressure 30.12 in    
Wind  
Wind Speed 8 mph (West)    
Max Wind Speed 18 mph    
Max Gust Speed 30 mph    
Visibility 7 miles    
Events Fog , Snow    
Averages and records for this station are not official NWS values.
T = Trace of Precipitation, MM = Missing Value Source: NWS Daily Summary

Daily Weather History Graph

Daily Weather History Graph

Search for Another Location

Airport or City:

Trip Planner

Search our weather history database for the weather conditions in past years. The results will help you decide how hot, cold, wet, or windy it might be!

Date:

Astronomy

Feb. 02, 2013 Rise Set
Actual Time 7:07 AM CST 5:26 PM CST
Civil Twilight 6:39 AM CST 5:53 PM CST
Nautical Twilight 6:07 AM CST 6:25 PM CST
Astronomical Twilight 5:36 AM CST 6:56 PM CST
Moon No Moon Rise 10:22 AM CST (2/2)
Length of Visible Light 11h 14m
Length of Day
10h 18m
Waning Gibbous, 59% of the Moon is Illuminated
Feb 2
Waning Gibbous
Feb 3
Last Quarter
Feb 10
New
Feb 17
First Quarter
Feb 25
Full

Hourly Weather History & Observations

Time (CST) Temp. Windchill Dew Point Humidity Pressure Visibility Wind Dir Wind Speed Gust Speed Precip Events Conditions
12:54 AM 30.0 °F 22.4 °F 9.0 °F 41% 30.23 in 10.0 mi South 8.1 mph - N/A   Overcast
1:54 AM 30.0 °F 25.2 °F 9.0 °F 41% 30.19 in 10.0 mi SSW 4.6 mph - N/A   Overcast
2:54 AM 30.0 °F 23.2 °F 9.0 °F 41% 30.18 in 10.0 mi SW 6.9 mph - N/A   Clear
3:54 AM 30.0 °F 21.7 °F 9.0 °F 41% 30.16 in 10.0 mi SW 9.2 mph - N/A   Scattered Clouds
4:54 AM 30.9 °F 24.3 °F 12.0 °F 46% 30.15 in 10.0 mi WSW 6.9 mph - N/A   Mostly Cloudy
5:54 AM 30.9 °F 23.5 °F 12.9 °F 47% 30.13 in 10.0 mi SW 8.1 mph - N/A   Mostly Cloudy
6:54 AM 30.9 °F 22.8 °F 15.1 °F 52% 30.12 in 10.0 mi SW 9.2 mph - N/A   Overcast
7:54 AM 32.0 °F 24.8 °F 16.0 °F 52% 30.12 in 10.0 mi WSW 8.1 mph - N/A   Mostly Cloudy
8:54 AM 33.1 °F 24.9 °F 17.1 °F 52% 30.12 in 10.0 mi West 10.4 mph - N/A   Mostly Cloudy
9:54 AM 36.0 °F 28.0 °F 18.0 °F 48% 30.13 in 10.0 mi WNW 11.5 mph - N/A   Mostly Cloudy
10:54 AM 39.0 °F 31.0 °F 19.9 °F 46% 30.13 in 10.0 mi WNW 13.8 mph - N/A   Mostly Cloudy
11:54 AM 41.0 °F 33.5 °F 18.0 °F 40% 30.11 in 10.0 mi WNW 13.8 mph 21.9 mph N/A   Scattered Clouds
12:54 PM 42.1 °F 33.9 °F 21.9 °F 45% 30.11 in 10.0 mi NW 17.3 mph 29.9 mph N/A   Scattered Clouds
1:54 PM 41.0 °F 32.2 °F 24.1 °F 51% 30.10 in 10.0 mi West 18.4 mph 25.3 mph N/A   Mostly Cloudy
2:54 PM 41.0 °F 32.8 °F 24.1 °F 51% 30.12 in 10.0 mi WNW 16.1 mph 28.8 mph N/A   Overcast
3:54 PM 39.0 °F 30.3 °F 25.0 °F 57% 30.14 in 10.0 mi West 16.1 mph - N/A   Overcast
4:54 PM 37.0 °F 28.5 °F 24.1 °F 59% 30.14 in 10.0 mi WNW 13.8 mph - N/A   Mostly Cloudy
5:54 PM 36.0 °F 27.1 °F 24.1 °F 62% 30.17 in 10.0 mi WNW 13.8 mph 29.9 mph N/A   Mostly Cloudy
6:54 PM 35.1 °F 31.0 °F 25.0 °F 67% 30.16 in 10.0 mi WNW 4.6 mph - N/A   Overcast
7:54 PM 30.0 °F 24.1 °F 23.0 °F 75% 30.17 in 10.0 mi NW 5.8 mph - N/A   Scattered Clouds
8:54 PM 34.0 °F - 25.0 °F 70% 30.13 in 10.0 mi Calm Calm - N/A   Overcast
9:54 PM 34.0 °F - 25.0 °F 70% 30.12 in 10.0 mi Calm Calm - N/A   Overcast
10:28 PM 33.8 °F 29.6 °F 26.6 °F 75% 30.09 in 2.5 mi North 4.6 mph - 0.00 in Snow Light Snow
10:35 PM 32.0 °F 27.5 °F 26.6 °F 80% 30.09 in 0.8 mi NNE 4.6 mph - 0.00 in Snow Light Snow
10:47 PM 30.2 °F - 28.4 °F 93% 30.08 in 0.5 mi Calm Calm - 0.03 in Fog , Snow Snow
10:54 PM 30.9 °F - 28.9 °F 92% 30.10 in 0.8 mi Calm Calm - 0.04 in Snow Light Snow
11:03 PM 30.2 °F 26.7 °F 28.4 °F 93% 30.06 in 0.8 mi SSE 3.5 mph - 0.02 in Snow Light Snow
11:08 PM 30.2 °F - 28.4 °F 93% 30.06 in 1.0 mi Calm Calm - 0.03 in Snow Light Snow
11:15 PM 30.2 °F - 28.4 °F 93% 30.06 in 2.0 mi Calm Calm - 0.03 in Snow Light Snow
11:23 PM 30.2 °F - 28.4 °F 93% 30.07 in 4.0 mi Calm Calm - 0.03 in   Overcast
11:27 PM 30.2 °F - 28.4 °F 93% 30.07 in 2.5 mi Calm Calm - 0.03 in Snow Light Snow
11:30 PM 30.2 °F - 28.4 °F 93% 30.07 in 1.5 mi Calm Calm - 0.03 in Snow Light Snow
11:36 PM 30.2 °F 26.7 °F 28.4 °F 93% 30.07 in 0.8 mi ENE 3.5 mph - 0.04 in Snow Light Snow
11:44 PM 30.2 °F - 28.4 °F 93% 30.06 in 0.5 mi Calm Calm - 0.06 in Fog , Snow Snow
11:54 PM 30.9 °F 26.2 °F 28.9 °F 92% 30.07 in 0.2 mi ENE 4.6 mph - 0.10 in Fog , Snow Heavy Snow